EW9798 Weather Reports


Display with metric or nautical units.
time (UTC)temp
F
wind
direction
speed
MPH
gust
MPH
rain 1hr
in
rain 24hr
in
rain mn
in
humidity
%
barometer
mb
20260904151605 51 225 0.0 1.0 0.01 0.01 0.01 98 1015.6
20260904150029 51 225 0.0 2.0 0.01 0.01 0.01 98 1015.5
20260904144532 51 204 0.0 2.0 0.01 0.01 0.00 98 1015.4
20260904143105 51 192 0.0 2.0 0.00 0.00 0.00 98 1015.3
20260904141531 50 135 0.0 0.0 0.00 0.00 0.00 98 1015.1
20260904140032 50 135 0.0 2.0 0.00 0.00 0.00 98 1014.9
20260904134530 50 135 0.0 2.0 0.00 0.00 0.00 98 1014.9
20260904133032 50 135 0.0 0.0 0.00 0.00 0.00 98 1014.8
20260904130030 50 135 0.0 0.0 0.00 0.00 0.00 98 1014.4
20260904124530 50 135 0.0 0.0 0.00 0.00 0.00 98 1014.4
20260904123033 50 135 0.0 0.0 0.00 0.00 0.00 98 1014.3
20260904121606 50 135 0.0 0.0 0.00 0.00 0.00 98 1014.2
20260904120030 50 135 0.0 0.0 0.00 0.00 0.00 98 1014.1
20260904114530 50 135 0.0 0.0 0.00 0.00 0.00 97 1014.0
20260904113031 50 135 0.0 0.0 0.00 0.00 0.00 97 1013.9
20260904111530 50 135 0.0 0.0 0.00 0.00 0.00 97 1013.8
20260904110029 50 135 0.0 0.0 0.00 0.00 0.00 97 1013.7
20260904103030 50 135 0.0 0.0 0.00 0.01 0.00 97 1013.4
20260904101530 50 135 0.0 1.0 0.00 0.01 0.00 97 1013.2
20260904100029 49 135 0.0 1.0 0.00 0.01 0.00 97 1013.1
20260904094532 49 135 0.0 0.0 0.00 0.01 0.00 97 1013.0
20260904093029 49 140 1.0 2.0 0.00 0.01 0.00 97 1013.0
20260904091530 48 157 0.0 1.0 0.00 0.01 0.00 96 1013.1
20260904090030 49 144 0.0 2.0 0.00 0.01 0.00 96 1012.9
20260904084531 49 146 0.0 2.0 0.00 0.01 0.00 96 1012.9
20260904083030 49 157 0.0 2.0 0.00 0.01 0.00 96 1012.8
20260904081530 50 136 0.0 1.0 0.00 0.01 0.00 96 1012.8
20260904080032 49 135 0.0 3.0 0.00 0.01 0.00 96 1012.8
20260904073031 50 135 0.0 2.0 0.00 0.01 0.00 95 1012.9
20260904071530 50 135 1.0 2.0 0.00 0.01 0.00 95 1012.8
20260904070033 50 135 2.0 4.0 0.00 0.01 0.00 95 1012.7
20260904064543 50 139 0.0 3.0 0.00 0.01 0.01 95 1012.7
20260904063030 50 164 1.0 2.0 0.00 0.01 0.01 94 1012.7
20260904061530 50 112 2.0 4.0 0.00 0.01 0.01 94 1012.6
20260904060031 51 126 2.0 4.0 0.00 0.01 0.01 93 1012.6
20260904054531 51 135 1.0 3.0 0.00 0.01 0.01 93 1012.6
20260904053032 52 176 1.0 3.0 0.00 0.01 0.01 93 1012.6
20260904051531 52 150 0.0 2.0 0.00 0.01 0.01 92 1012.7
20260904050108 52 129 1.0 3.0 0.00 0.01 0.01 92 1012.7
20260904044530 53 135 0.0 3.0 0.00 0.01 0.01 91 1012.7
20260904043031 53 154 2.0 4.0 0.00 0.01 0.01 90 1012.7
20260904041531 53 77 0.0 3.0 0.00 0.01 0.01 88 1012.8
20260904040030 53 67 1.0 2.0 0.00 0.01 0.01 88 1012.7
20260904034531 54 67 1.0 3.0 0.00 0.01 0.01 87 1012.7
20260904033029 54 72 1.0 5.0 0.00 0.01 0.01 86 1012.5
20260904030030 55 27 3.0 8.0 0.00 0.01 0.01 84 1012.3
20260904024530 56 22 3.0 7.0 0.00 0.02 0.01 83 1012.2
20260904023107 57 3 3.0 7.0 0.00 0.06 0.01 81 1012.2
20260904021606 57 23 2.0 9.0 0.00 0.08 0.01 81 1012.1
20260904020029 57 30 3.0 7.0 0.00 0.12 0.01 80 1012.0
20260904014529 58 355 2.0 5.0 0.00 0.16 0.01 79 1012.0
20260904013031 58 337 1.0 6.0 0.00 0.16 0.01 79 1012.0
20260904011530 59 349 2.0 6.0 0.00 0.16 0.01 77 1011.8
20260904010033 60 345 0.0 5.0 0.00 0.16 0.01 75 1011.8
20260904003031 60 3 4.0 8.0 0.00 0.19 0.01 76 1011.6
20260904001607 60 21 4.0 10.0 0.00 0.19 0.01 79 1011.8
20260904000032 59 25 3.0 11.0 0.00 0.20 0.01 81 1012.0
20260903233030 58 38 4.0 9.0 0.00 0.21 0.01 77 1012.1
20260903231531 59 11 6.0 15.0 0.00 0.21 0.01 75 1012.1
20260903230032 59 24 7.0 15.0 0.00 0.22 0.01 74 1012.1
20260903224531 61 27 5.0 8.0 0.00 0.22 0.01 72 1012.1
20260903223035 62 13 5.0 11.0 0.00 0.22 0.01 71 1012.0
20260903221529 62 350 5.0 13.0 0.00 0.22 0.01 70 1011.9
20260903220029 62 323 7.0 14.0 0.00 0.23 0.01 66 1011.6
20260903214530 64 340 3.0 7.0 0.00 0.24 0.01 65 1011.4
20260903213032 64 56 0.0 5.0 0.00 0.24 0.01 65 1011.5
20260903211532 65 21 2.0 6.0 0.00 0.25 0.01 66 1011.6
20260903210031 64 307 1.0 7.0 0.00 0.27 0.01 67 1011.7
20260903204530 63 15 3.0 8.0 0.00 0.28 0.01 69 1011.7
20260903203043 64 318 2.0 6.0 0.00 0.28 0.01 67 1011.8
20260903194601 64 338 3.0 8.0 0.00 0.30 0.01 77 1012.4
20260903191531 59 72 0.0 4.0 0.00 0.32 0.01 85 1012.9
20260903190106 58 157 0.0 2.0 0.00 0.32 0.01 85 1013.1
20260903183038 58 49 1.0 4.0 0.00 0.32 0.01 92 1013.2
20260903181533 56 312 1.0 5.0 0.00 0.32 0.01 95 1013.4
20260903180031 55 335 0.0 4.0 0.00 0.32 0.01 97 1013.4
20260903174529 55 15 1.0 6.0 0.00 0.32 0.01 99 1013.3
20260903173106 54 284 1.0 3.0 0.00 0.32 0.01 99 1013.4
20260903171531 53 8 0.0 2.0 0.00 0.32 0.01 99 1013.4
20260903170030 52 350 0.0 0.0 0.00 0.32 0.01 99 1013.6
20260903163031 51 127 0.0 2.0 0.00 0.32 0.01 99 1013.5
20260903160038 50 73 0.0 2.0 0.00 0.32 0.01 99 1013.6
20260903154530 50 301 1.0 8.0 0.00 0.32 0.01 99 1013.5
20260903153039 50 108 0.0 4.0 0.00 0.32 0.01 99 1013.5